Wind_Speed
8 6 5 3 1 0 2 3 4 5 5 6 6 7 8 9 9 10 10 10 11 12 12 13 14 15 15 16 17 19 20 22 23 25 26 28 29 30 31 33 34 35
6 5 3 2 2 2 3 4 5 5 6 6 7 7 7 8 8 9 10 10 11 11 12 13 14 14 15 15 16 16 18 19 20 21 23 25 26 28 30 32 33 33
5 4 3 2 2 3 3 4 4 5 5 6 6 6 6 7 8 9 9 10 11 12 13 13 14 15 16 16 17 17 18 19 19 20 21 23 24 26 27 28 30 30
4 2 2 2 2 3 3 4 4 4 4 4 4 5 6 7 8 9 10 11 12 12 13 14 15 16 16 17 18 18 19 19 20 20 21 22 22 24 25 26 28 29
3 2 1 1 2 2 3 3 2 2 2 2 3 4 5 7 8 9 10 11 12 13 14 15 16 17 18 18 18 19 19 19 19 20 21 22 22 23 24 25 26 27
2 2 1 1 1 1 1 1 0 0 1 2 3 4 6 7 8 10 11 12 13 13 14 15 16 17 18 19 19 20 20 21 21 21 22 22 22 23 23 24 26 26
3 2 1 1 1 1 1 1 1 0 1 3 4 5 6 7 8 10 10 11 12 13 14 14 15 16 17 18 19 20 21 22 22 23 23 24 24 24 25 25 27 27
3 3 2 2 2 3 3 2 1 1 2 4 5 6 7 7 8 9 10 11 12 13 14 15 16 17 18 19 20 21 21 22 23 24 25 26 26 26 27 27 29 29
4 4 4 4 4 4 3 2 1 2 3 4 5 5 6 7 8 10 11 13 14 15 17 17 18 20 21 22 23 23 24 24 25 26 27 28 29 29 30 30 32 32
5 4 4 4 4 4 3 2 1 2 2 3 4 5 7 8 10 13 14 16 17 17 19 20 21 22 22 24 25 26 27 27 28 29 29 31 32 32 33 33 34 35
5 5 5 5 4 4 3 2 1 0 1 3 5 7 9 12 14 16 17 18 19 19 20 21 22 24 24 25 27 28 29 29 30 31 31 32 33 33 34 35 36 36
6 6 6 5 4 4 3 3 1 1 3 6 8 10 13 14 16 18 19 20 20 21 21 22 23 25 26 27 27 28 29 30 31 31 32 33 34 34 35 36 37 38
8 7 6 5 4 3 2 1 1 4 6 9 11 13 15 17 18 20 20 20 21 21 22 22 23 24 25 26 27 29 30 31 31 32 33 34 34 35 36 37 38 38
8 6 5 4 2 1 1 2 4 7 9 12 14 16 18 19 20 20 19 19 20 21 21 22 23 24 26 27 28 30 31 32 33 34 35 36 36 37 38 38 39 40
7 5 4 2 1 3 4 6 7 10 12 14 16 17 18 19 19 19 19 19 20 20 21 22 23 25 26 28 30 32 33 34 35 36 38 39 40 40 41 41 41 42
5 3 1 1 3 5 7 9 10 12 13 15 16 16 17 17 17 18 19 20 21 22 23 23 25 26 28 29 31 33 35 36 38 39 40 42 43 44 45 45 45 46
4 2 2 3 6 8 9 10 11 12 13 14 15 16 16 17 18 20 21 23 24 25 26 26 27 28 29 31 32 34 36 38 40 42 43 44 46 47 48 49 50 50
3 3 4 5 7 9 10 11 12 13 14 15 16 17 18 19 21 22 24 25 26 27 28 29 29 30 31 32 34 35 38 40 42 44 46 47 48 50 51 53 54 55
3 3 4 6 8 9 11 12 13 15 16 17 18 19 21 22 23 24 26 27 28 30 30 31 32 33 34 35 37 39 40 42 45 46 48 50 51 52 54 55 56 57
3 4 5 7 9 10 12 13 15 16 18 19 20 21 23 24 25 26 27 28 30 32 33 34 34 35 37 38 39 41 42 44 46 48 50 51 53 54 55 56 57 58
3 4 6 8 10 11 13 15 16 18 19 21 22 23 25 26 27 28 29 30 32 33 35 36 36 37 38 39 41 42 44 45 47 49 50 52 53 54 54 55 56 56
4 6 8 9 11 13 15 16 18 19 21 22 23 24 26 27 28 30 31 32 33 35 37 38 38 38 39 40 41 43 44 46 48 49 51 52 53 54 54 55 56 56
6 8 9 11 13 14 16 17 19 20 22 23 25 26 27 28 30 31 32 34 35 36 38 39 40 40 40 41 42 43 45 47 48 50 52 53 54 55 56 57 57 57
7 9 11 12 14 15 16 18 19 21 22 24 26 27 28 30 31 32 33 34 35 37 38 40 41 41 42 42 43 44 45 47 49 51 52 54 55 56 57 58 58 58
8 10 11 12 14 15 17 19 20 22 23 24 26 28 29 31 32 34 35 35 36 37 38 40 42 42 43 44 44 44 45 47 49 51 53 55 56 57 59 60 60 60
9 10 12 13 15 16 18 20 21 22 24 25 27 28 30 31 32 34 36 36 37 38 39 40 42 44 45 46 46 46 46 48 49 52 54 56 57 59 61 62 62 62
Wind_Direction
128 128 125 128 134 233 275 288 292 299 306 310 314 316 320 322 324 328 329 329 329 328 328 325 322 320 317 314 308 303 300 296 294 292 288 287 287 285 283 284 285 287
136 141 147 162 202 249 268 281 291 300 306 310 315 318 323 328 333 338 342 344 343 342 341 339 336 333 330 327 322 318 314 311 308 304 299 297 295 292 290 290 290 290
149 156 174 206 241 262 277 288 295 303 308 313 321 329 339 348 354 355 356 356 354 352 349 347 344 341 338 336 334 332 329 326 322 317 311 308 306 303 301 299 297 296
167 183 211 243 274 283 292 300 302 308 317 327 341 357 3 5 2 358 355 352 351 350 348 346 344 342 341 340 338 337 336 333 329 326 322 321 318 314 312 309 306 304
185 205 233 268 293 298 301 306 308 321 353 15 16 12 4 358 353 348 345 344 344 344 343 342 340 338 337 336 335 335 334 334 332 329 327 327 326 323 321 317 314 312
185 199 223 254 276 284 289 282 262 40 49 28 10 359 351 346 342 341 341 341 343 343 342 341 339 337 335 334 334 334 333 333 333 331 330 329 328 327 326 323 320 319
184 191 196 205 217 203 202 190 176 177 359 355 351 347 344 343 342 344 347 348 349 348 345 344 342 340 339 337 337 336 336 335 333 332 332 331 330 330 329 327 325 324
182 184 180 183 187 185 187 188 197 300 340 347 349 348 347 348 349 351 352 351 350 348 346 345 343 341 340 338 337 336 335 334 333 332 331 330 330 329 329 328 327 326
171 171 173 180 185 187 192 201 263 330 347 352 352 352 352 352 352 352 352 349 348 346 344 343 341 340 338 336 335 333 332 332 331 330 329 329 328 328 328 327 326 325
167 169 176 187 192 195 205 221 287 336 351 352 352 354 354 354 353 351 350 347 346 344 343 341 340 338 336 334 333 331 331 330 330 329 329 328 328 328 328 327 326 325
179 182 186 194 197 196 199 199 206 283 339 347 352 353 352 351 350 348 346 345 343 342 340 339 337 335 333 333 332 331 330 330 329 329 329 329 329 328 328 327 326 326
189 189 189 192 192 190 187 185 195 315 340 343 344 345 344 343 342 342 341 339 338 337 336 336 334 333 331 331 330 329 328 328 328 328 328 328 328 328 328 327 327 326
189 187 185 185 184 183 184 192 315 336 338 337 337 337 336 336 336 336 335 335 334 334 334 334 333 332 330 330 329 328 327 327 327 327 326 326 326 326 326 326 326 325
183 180 176 176 177 194 322 334 336 335 333 333 332 332 331 331 331 331 331 331 332 332 333 333 332 330 329 329 328 328 328 327 327 327 326 325 324 324 324 324 324 324
175 173 171 174 299 326 329 332 333 331 330 329 328 327 328 328 327 327 326 326 327 328 329 330 330 331 331 331 331 330 329 328 328 327 326 325 324 323 323 323 322 322
177 179 189 303 322 322 324 326 328 327 326 325 324 324 324 324 324 324 324 324 325 326 327 329 330 331 332 332 332 331 330 329 327 327 326 325 324 323 321 321 321 320
194 222 290 312 315 316 319 322 324 325 325 324 324 324 324 324 324 325 325 326 327 328 329 330 331 331 330 329 329 329 328 327 325 325 324 323 323 322 320 320 319 319
219 262 300 309 311 316 320 324 327 327 327 326 325 325 325 325 326 326 327 328 328 328 329 330 331 331 330 328 328 328 327 325 324 323 322 322 321 321 320 319 318 318
245 283 308 313 316 322 325 328 329 327 327 327 327 327 327 327 327 328 329 329 329 328 329 330 331 331 330 330 329 328 327 325 324 323 321 320 320 319 319 318 317 317
269 302 317 320 323 327 328 329 329 328 329 329 329 328 328 328 328 328 329 329 329 328 327 329 331 331 331 330 329 328 327 325 323 322 320 319 318 317 317 316 316 316
300 322 328 329 331 331 331 331 331 330 331 330 330 329 329 329 329 328 328 328 329 328 327 327 330 331 330 329 329 328 326 324 322 320 318 317 316 315 314 314 313 313
325 336 335 334 333 332 332 332 332 332 331 329 328 328 328 327 327 327 327 327 328 328 327 325 327 330 329 328 328 327 325 322 320 319 317 315 314 313 313 312 311 310
334 339 337 334 333 333 332 332 331 331 330 327 325 325 325 325 325 326 327 328 328 328 327 325 325 327 329 327 326 326 324 321 319 318 316 314 313 312 311 309 309 308
335 337 335 333 332 331 331 331 331 329 327 325 324 324 325 326 325 325 327 328 328 328 327 326 325 325 326 326 325 324 322 321 319 317 315 314 313 312 310 308 307 306
332 333 332 331 331 331 331 330 329 327 326 325 325 325 326 327 327 326 326 327 327 326 325 324 323 323 323 323 323 322 321 320 319 317 315 314 312 310 308 306 305 305
330 330 330 330 331 332 331 329 327 325 325 325 326 326 327 327 327 326 324 324 325 324 323 323 322 322 322 322 322 321 321 319 317 316 314 313 311 309 307 306 305 304
Height
1554 1555 1556 1557 1558 1558 1559 1559 1559 1559 1559 1559 1558 1558 1558 1557 1557 1556 1556 1556 1555 1554 1554 1553 1552 1551 1551 1550 1549 1548 1547 1547 1546 1546 1545 1544 1543 1543 1542 1541 1540 1539
1554 1554 1555 1556 1557 1558 1558 1558 1558 1558 1558 1558 1557 1557 1556 1556 1556 1555 1555 1554 1554 1553 1552 1551 1551 1550 1549 1548 1547 1546 1545 1545 1544 1543 1542 1541 1541 1540 1539 1538 1537 1536
1553 1554 1555 1555 1556 1556 1557 1557 1557 1557 1557 1557 1556 1556 1556 1555 1555 1554 1554 1553 1552 1552 1551 1550 1549 1548 1548 1547 1545 1544 1544 1543 1542 1541 1540 1539 1538 1537 1536 1535 1534 1533
1553 1554 1554 1554 1555 1555 1555 1556 1556 1556 1556 1556 1555 1555 1555 1554 1554 1553 1553 1552 1551 1551 1550 1549 1548 1547 1546 1545 1544 1543 1542 1541 1540 1539 1538 1537 1536 1535 1533 1532 1531 1530
1553 1553 1553 1554 1554 1554 1554 1555 1555 1555 1555 1555 1554 1554 1554 1553 1553 1552 1552 1551 1550 1549 1549 1548 1547 1546 1545 1544 1543 1542 1541 1541 1539 1538 1537 1536 1535 1533 1532 1530 1528 1527
1552 1552 1552 1553 1553 1553 1553 1554 1554 1554 1554 1554 1554 1553 1553 1552 1552 1551 1551 1550 1549 1548 1548 1547 1546 1545 1545 1543 1542 1541 1540 1539 1538 1536 1535 1534 1533 1532 1530 1528 1526 1525
1551 1551 1551 1551 1552 1552 1553 1553 1553 1553 1554 1554 1553 1553 1552 1551 1551 1550 1550 1549 1548 1548 1547 1546 1546 1545 1544 1542 1541 1540 1539 1537 1536 1535 1534 1532 1531 1530 1528 1526 1524 1523
1549 1550 1550 1550 1551 1551 1552 1552 1552 1553 1553 1553 1553 1552 1551 1550 1550 1549 1549 1548 1548 1547 1546 1546 1544 1543 1542 1541 1539 1538 1537 1536 1534 1533 1532 1530 1529 1527 1526 1524 1522 1520
1548 1549 1549 1549 1550 1550 1551 1551 1551 1552 1552 1552 1552 1551 1550 1550 1549 1549 1549 1548 1547 1546 1545 1544 1543 1541 1540 1539 1537 1536 1535 1534 1533 1531 1529 1528 1526 1525 1523 1522 1520 1518
1548 1548 1548 1549 1549 1549 1549 1550 1550 1551 1551 1551 1551 1551 1550 1549 1549 1548 1547 1546 1545 1544 1543 1542 1541 1539 1538 1537 1535 1534 1533 1531 1530 1529 1527 1526 1524 1522 1520 1518 1517 1515
1547 1548 1548 1548 1549 1548 1548 1549 1549 1550 1550 1550 1550 1550 1549 1548 1547 1547 1546 1545 1544 1542 1541 1540 1539 1537 1536 1535 1533 1532 1530 1529 1528 1526 1525 1523 1522 1520 1518 1516 1514 1512
1547 1547 1548 1548 1548 1548 1548 1547 1548 1549 1549 1549 1549 1548 1547 1546 1546 1545 1544 1543 1542 1541 1540 1538 1537 1536 1534 1533 1531 1530 1528 1527 1526 1524 1522 1521 1519 1517 1516 1513 1511 1509
1546 1547 1547 1547 1548 1548 1547 1546 1546 1547 1547 1547 1547 1546 1545 1545 1544 1543 1542 1541 1540 1539 1538 1537 1535 1534 1532 1531 1530 1528 1526 1525 1523 1522 1520 1519 1517 1515 1513 1511 1509 1506
1546 1546 1545 1546 1547 1547 1546 1545 1544 1545 1545 1545 1545 1544 1543 1542 1542 1541 1540 1540 1539 1537 1537 1535 1534 1533 1531 1529 1528 1526 1524 1522 1520 1519 1517 1515 1513 1511 1510 1508 1505 1503
1545 1544 1544 1545 1545 1545 1545 1544 1543 1543 1543 1543 1542 1542 1541 1541 1540 1540 1539 1538 1538 1536 1535 1534 1532 1531 1529 1527 1525 1523 1521 1519 1517 1515 1513 1510 1508 1507 1505 1504 1502 1499
1544 1543 1543 1543 1544 1544 1544 1543 1541 1541 1541 1541 1541 1540 1540 1539 1539 1538 1537 1536 1535 1534 1533 1532 1530 1529 1527 1525 1522 1520 1517 1515 1513 1511 1509 1506 1503 1501 1499 1497 1496 1494
1542 1542 1541 1541 1542 1543 1542 1541 1540 1540 1540 1539 1539 1539 1538 1537 1537 1536 1535 1533 1532 1531 1530 1529 1528 1526 1524 1522 1520 1518 1515 1512 1509 1507 1505 1502 1500 1497 1494 1492 1490 1488
1540 1540 1540 1540 1541 1541 1540 1539 1538 1538 1538 1537 1537 1536 1536 1535 1534 1533 1532 1531 1529 1528 1527 1526 1525 1523 1522 1520 1517 1515 1513 1509 1506 1504 1501 1498 1496 1493 1490 1487 1484 1481
1538 1538 1538 1538 1539 1539 1538 1537 1536 1536 1535 1535 1534 1534 1533 1532 1531 1530 1529 1527 1526 1524 1523 1522 1521 1520 1518 1516 1514 1512 1510 1506 1503 1501 1497 1494 1492 1489 1486 1483 1479 1476
1535 1535 1536 1536 1537 1537 1536 1535 1534 1533 1533 1532 1531 1531 1530 1529 1528 1527 1525 1524 1523 1521 1520 1519 1518 1516 1514 1513 1511 1508 1506 1503 1500 1497 1494 1491 1488 1485 1482 1479 1476 1472
1533 1532 1533 1534 1534 1534 1533 1532 1532 1531 1530 1529 1528 1528 1527 1526 1525 1523 1522 1521 1520 1518 1517 1515 1515 1513 1512 1510 1508 1505 1503 1500 1496 1493 1490 1487 1484 1482 1479 1475 1472 1469
1531 1530 1531 1532 1532 1531 1531 1530 1529 1528 1527 1526 1526 1525 1524 1523 1522 1521 1519 1518 1517 1516 1514 1512 1511 1510 1509 1507 1504 1502 1499 1496 1492 1488 1485 1482 1479 1477 1474 1470 1467 1464
1529 1528 1528 1529 1529 1528 1528 1527 1526 1525 1524 1524 1523 1522 1521 1520 1519 1518 1517 1516 1514 1513 1511 1509 1508 1507 1505 1503 1501 1498 1495 1491 1488 1484 1480 1477 1474 1471 1468 1464 1462 1459
1527 1526 1526 1526 1526 1526 1525 1524 1523 1523 1522 1521 1520 1519 1518 1518 1516 1515 1515 1513 1511 1510 1508 1505 1504 1503 1501 1499 1497 1495 1492 1488 1484 1479 1475 1472 1468 1465 1462 1458 1455 1453
1524 1524 1524 1524 1524 1523 1522 1521 1521 1520 1520 1519 1518 1517 1516 1515 1513 1512 1511 1510 1509 1507 1506 1503 1500 1499 1498 1496 1493 1491 1488 1484 1480 1475 1470 1467 1463 1458 1454 1451 1449 1446
1522 1521 1521 1521 1521 1520 1519 1519 1518 1518 1517 1516 1516 1515 1513 1512 1511 1509 1508 1507 1506 1504 1502 1500 1497 1494 1493 1491 1488 1486 1484 1480 1475 1471 1465 1461 1457 1452 1447 1443 1441 1439